Location: Unspecified
(0.0000°N, 0.0000°E)
Time: 05:38:00
(UTC+02:00)

ASC 2 Rocket - Visible Passes

Search period start: 25 July 2014 00:00
Search period end: 04 August 2014 00:00
Orbit: 556 x 2350 km, 24.0° (Epoch: 24 July)

Date Brightness Start Highest point End Pass type
(mag) Time Alt. Az. Time Alt. Az. Time Alt. Az.
25 Jul 6.7 00:13:22 10° WNW 00:21:40 30° NNW 00:21:40 30° NNW visible
25 Jul 7.3 02:35:01 21° NNE 02:35:01 21° NNE 02:41:02 10° NE visible
25 Jul 6.9 04:29:55 16° NW 04:38:38 29° N 04:48:54 10° ENE visible
25 Jul 6.2 06:32:45 10° NW 06:45:28 46° NNE 06:54:45 10° E visible
25 Jul 4.9 21:03:18 10° WSW 21:10:03 67° NNW 21:20:32 10° ENE visible
25 Jul 6.3 23:06:48 10° WNW 23:15:00 34° NNW 23:20:48 23° NNE visible
26 Jul 7.2 01:12:47 10° NW 01:15:43 17° NW 01:15:43 17° NW visible
26 Jul 7.0 03:28:49 26° N 03:30:17 26° N 03:40:58 10° ENE visible
26 Jul 6.6 05:25:00 10° NW 05:37:51 39° NNE 05:48:14 10° E visible
26 Jul 5.5 07:30:40 10° WNW 07:43:38 73° NNE 07:52:24 10° ESE visible
26 Jul 5.9 22:00:48 10° W 22:07:57 39° NNW 22:18:17 10° NE visible
27 Jul 6.8 00:05:45 10° WNW 00:14:01 25° N 00:14:36 25° N visible
27 Jul 7.4 02:28:00 18° NE 02:28:00 18° NE 02:32:25 10° NE visible
27 Jul 6.8 04:22:57 23° NNW 04:29:49 33° NNE 04:40:57 10° ENE visible
27 Jul 6.0 06:22:46 10° NW 06:36:28 58° NNE 06:46:36 10° E visible
27 Jul 5.3 20:55:18 10° W 21:01:26 48° NNW 21:10:41 10° NE visible
27 Jul 6.5 22:59:15 10° WNW 23:06:28 27° N 23:13:15 16° NNE visible
28 Jul 7.2 01:04:56 10° NW 01:08:08 17° NNW 01:08:08 17° NNW visible
28 Jul 7.0 03:22:22 28° NNE 03:22:22 28° NNE 03:32:50 10° ENE visible
28 Jul 6.3 05:17:20 16° NW 05:28:48 47° NNE 05:40:06 10° E visible
28 Jul 5.4 07:20:52 10° WNW 07:34:31 89° NNE 07:43:59 10° ESE visible
28 Jul 6.2 21:53:13 10° WNW 21:59:28 29° NNW 22:08:11 10° NE visible
28 Jul 6.9 23:58:15 10° NW 00:05:34 21° N 00:06:33 21° N visible
29 Jul 7.5 02:21:57 14° NE 02:21:57 14° NE 02:23:56 10° ENE visible
29 Jul 6.6 04:16:56 34° N 04:20:48 39° NNE 04:32:48 10° E visible
29 Jul 5.8 06:12:55 10° WNW 06:27:15 71° NNE 06:38:12 10° ESE visible
29 Jul 5.7 20:47:35 10° W 20:53:00 34° NNW 21:00:47 10° NE visible
29 Jul 6.7 22:51:56 10° NW 22:58:06 21° N 23:04:47 12° NE visible
30 Jul 7.2 00:56:56 10° NW 00:59:38 16° NNW 00:59:38 16° NNW visible
30 Jul 7.0 03:16:37 28° NE 03:16:37 28° NE 03:24:36 10° ENE visible
30 Jul 6.1 05:11:35 30° NW 05:19:33 57° NNE 05:31:43 10° E visible
30 Jul 5.5 07:11:13 10° WNW 07:25:13 76° SSW 07:35:22 10° ESE visible
30 Jul 6.4 21:45:55 10° WNW 21:51:10 21° N 21:58:03 10° NE visible
30 Jul 6.9 23:50:46 10° NW 23:57:13 19° N 23:57:45 19° N visible
31 Jul 6.4 04:11:16 46° NNE 04:11:35 46° NNE 04:24:25 10° E visible
31 Jul 5.7 06:06:15 19° WNW 06:17:52 85° NNE 06:29:33 10° ESE visible
31 Jul 6.0 20:40:10 10° WNW 20:44:43 23° NNW 20:50:47 10° NE visible
31 Jul 6.8 22:44:50 10° NW 22:49:51 17° N 22:55:46 10° NE visible
01 Aug 7.2 00:48:45 10° NNW 00:50:36 14° NNW 00:50:36 14° NNW visible
01 Aug 7.1 03:10:54 24° ENE 03:10:54 24° ENE 03:16:13 10° E visible
01 Aug 5.9 05:05:52 51° NNW 05:10:07 68° NNE 05:23:04 10° ESE visible
01 Aug 5.6 07:01:46 10° WNW 07:15:50 63° SSW 07:26:34 10° SE visible
01 Aug 6.6 21:39:01 10° NW 21:42:58 16° N 21:47:48 10° NNE visible
01 Aug 6.9 23:43:10 10° NNW 23:48:34 17° N 23:48:34 17° N visible
02 Aug 6.3 04:05:24 48° ENE 04:05:24 48° ENE 04:15:47 10° E visible
02 Aug 5.6 06:00:22 34° WNW 06:08:21 81° SSW 06:20:41 10° ESE visible
02 Aug 6.3 20:33:12 10° NW 20:36:33 16° N 20:40:36 10° NNE visible
02 Aug 6.8 22:37:54 10° NNW 22:41:41 14° N 22:46:06 10° NNE visible
03 Aug 7.2 00:40:21 10° NNW 00:41:20 13° NNW 00:41:20 13° NNW visible
03 Aug 7.4 03:04:49 18° E 03:04:49 18° E 03:07:36 10° E visible
03 Aug 5.7 04:59:46 79° N 05:00:34 81° NNE 05:14:09 10° ESE visible
03 Aug 5.8 06:54:43 16° W 07:06:25 53° SSW 07:17:36 10° SE visible
03 Aug 6.7 21:32:52 10° NNW 21:34:53 11° N 21:37:05 10° NNE visible
03 Aug 6.8 23:35:19 10° NNW 23:39:15 16° N 23:39:15 16° N visible
